CTN552 LDRI-LDOS

Flight info

Callsign CTN552
Flight time N/A
Altitude 19000
Route RUGOG M986 ZAG P735 LAKIK
Aircraft A320/M-SDE3FGHIRWY/LB1

Departure

Time 2026-05-06 23:04
Airport Rijeka Airport (LDRI)

Arrival

Time N/A
Airport Osijek Airport (LDOS)
Time Latitude Longitude Altitude Speed Heading
2026-05-06 22:55 45.21878 14.57083 265 ft 0 kts 231°
2026-05-06 22:58 45.21879 14.57072 265 ft 8 kts 277°
2026-05-06 22:59 45.21932 14.56960 266 ft 12 kts 334°
2026-05-06 22:59 45.21986 14.56991 266 ft 6 kts 48°
2026-05-06 22:59 45.21995 14.57025 266 ft 0 kts 45°
2026-05-06 23:01 45.22009 14.57029 266 ft 10 kts
2026-05-06 23:01 45.22028 14.57001 267 ft 1 kts 264°
2026-05-06 23:02 45.22014 14.56893 267 ft 33 kts 281°
2026-05-06 23:02 45.22147 14.56567 270 ft 39 kts 322°
2026-05-06 23:02 45.22365 14.56346 271 ft 38 kts 325°
2026-05-06 23:02 45.22539 14.56207 274 ft 14 kts 348°
2026-05-06 23:03 45.22550 14.56173 271 ft 2 kts 228°
2026-05-06 23:03 45.22500 14.56221 271 ft 30 kts 141°
2026-05-06 23:03 45.22063 14.56685 268 ft 124 kts 145°
2026-05-06 23:03 45.21164 14.57601 369 ft 181 kts 147°
2026-05-06 23:04 45.20090 14.58504 1357 ft 182 kts 147°
2026-05-06 23:04 45.18999 14.59601 1935 ft 204 kts 143°
2026-05-06 23:04 45.17807 14.60890 2396 ft 227 kts 143°
2026-05-06 23:04 45.16489 14.62319 2904 ft 251 kts 143°
2026-05-06 23:05 45.15052 14.63859 3679 ft 262 kts 143°
2026-05-06 23:05 45.13577 14.65420 4610 ft 267 kts 143°
2026-05-06 23:05 45.12075 14.66998 5570 ft 271 kts 144°
2026-05-06 23:05 45.10552 14.68588 6496 ft 274 kts 144°
2026-05-06 23:06 45.09003 14.70198 7393 ft 278 kts 144°
2026-05-06 23:06 45.07420 14.71835 7839 ft 283 kts 144°
2026-05-06 23:06 45.05833 14.73476 7979 ft 283 kts 144°
2026-05-06 23:06 45.04246 14.75112 8012 ft 282 kts 144°
2026-05-06 23:07 45.02692 14.76712 8623 ft 266 kts 144°
2026-05-06 23:07 45.01258 14.78190 9969 ft 249 kts 144°
2026-05-06 23:07 44.99823 14.79516 10942 ft 242 kts 165°
2026-05-06 23:07 44.98227 14.79870 11751 ft 230 kts 193°
2026-05-06 23:08 44.96778 14.79049 12494 ft 225 kts 221°
2026-05-06 23:08 44.95830 14.77304 13236 ft 229 kts 248°
2026-05-06 23:08 44.95628 14.75056 13940 ft 240 kts 276°
2026-05-06 23:08 44.96339 14.72872 14664 ft 257 kts 306°
2026-05-06 23:09 44.97853 14.71398 15220 ft 274 kts 329°
2026-05-06 23:09 44.99593 14.70311 15798 ft 280 kts 331°
2026-05-06 23:09 45.01405 14.69253 16401 ft 284 kts 331°
2026-05-06 23:09 45.03248 14.68193 17039 ft 287 kts 331°
2026-05-06 23:10 45.05109 14.67116 17675 ft 291 kts 330°
2026-05-06 23:10 45.06992 14.66012 18308 ft 295 kts 330°
2026-05-06 23:10 45.08896 14.64877 18806 ft 300 kts 330°
2026-05-06 23:10 45.10821 14.63716 18967 ft 307 kts 329°
2026-05-06 23:11 45.12182 14.62884 19003 ft 324 kts 330°
2026-05-06 23:11 45.14330 14.61560 19009 ft 349 kts 330°
2026-05-06 23:11 45.16635 14.60144 19011 ft 373 kts 331°
2026-05-06 23:11 45.19068 14.58669 19010 ft 386 kts 332°
2026-05-06 23:12 45.21708 14.57753 19004 ft 399 kts 354°
2026-05-06 23:12 45.24465 14.58390 19009 ft 408 kts 20°
2026-05-06 23:12 45.26858 14.60541 19008 ft 410 kts 45°
2026-05-06 23:12 45.28461 14.63833 19009 ft 406 kts 70°
2026-05-06 23:13 45.29374 14.67614 19010 ft 405 kts 76°
2026-05-06 23:13 45.30229 14.71438 19005 ft 406 kts 76°
2026-05-06 23:13 45.30997 14.75291 18995 ft 403 kts 85°
2026-05-06 23:13 45.30959 14.79141 19005 ft 393 kts 103°
2026-05-06 23:14 45.30638 14.83004 18995 ft 395 kts 101°
2026-05-06 23:14 45.30416 14.86890 18991 ft 394 kts 99°
2026-05-06 23:14 45.30239 14.90778 18987 ft 394 kts 98°
2026-05-06 23:14 45.30064 14.94656 18985 ft 393 kts 98°
2026-05-06 23:15 45.29871 14.98533 18982 ft 394 kts 99°
2026-05-06 23:15 45.29655 15.02410 18979 ft 393 kts 99°
2026-05-06 23:15 45.29421 15.06272 18971 ft 393 kts 99°
2026-05-06 23:15 45.29176 15.10138 18973 ft 393 kts 99°
2026-05-06 23:16 45.28927 15.13995 18970 ft 392 kts 99°
2026-05-06 23:16 45.28674 15.17852 18967 ft 391 kts 99°
2026-05-06 23:16 45.28421 15.21695 18969 ft 391 kts 99°
2026-05-06 23:16 45.28169 15.25528 18970 ft 390 kts 99°
2026-05-06 23:17 45.28004 15.29370 18963 ft 392 kts 90°
2026-05-06 23:17 45.28680 15.33133 18973 ft 399 kts 68°
2026-05-06 23:17 45.30115 15.36519 18972 ft 402 kts 53°
2026-05-06 23:17 45.31963 15.39496 18973 ft 402 kts 46°
2026-05-06 23:18 45.33988 15.42233 18968 ft 402 kts 43°
2026-05-06 23:18 45.36051 15.44924 18970 ft 402 kts 44°
2026-05-06 23:18 45.38070 15.47675 18969 ft 402 kts 45°
2026-05-06 23:18 45.40017 15.50518 18965 ft 401 kts 48°
2026-05-06 23:19 45.41899 15.53444 18968 ft 401 kts 49°
2026-05-06 23:19 45.43738 15.56418 18967 ft 400 kts 50°
2026-05-06 23:19 45.45563 15.59415 18969 ft 400 kts 50°
2026-05-06 23:19 45.47386 15.62406 18970 ft 400 kts 50°
2026-05-06 23:20 45.49219 15.65390 18970 ft 400 kts 50°
2026-05-06 23:20 45.51062 15.68362 18972 ft 400 kts 50°
2026-05-06 23:20 45.52911 15.71321 18968 ft 400 kts 49°
2026-05-06 23:20 45.54765 15.74279 18972 ft 400 kts 49°
2026-05-06 23:21 45.56621 15.77240 18974 ft 400 kts 50°
2026-05-06 23:21 45.58475 15.80210 18975 ft 401 kts 50°
2026-05-06 23:21 45.60324 15.83186 18977 ft 401 kts 50°
2026-05-06 23:21 45.62170 15.86167 18980 ft 401 kts 50°
2026-05-06 23:22 45.64016 15.89151 18981 ft 401 kts 50°
2026-05-06 23:22 45.65867 15.92141 18982 ft 401 kts 50°
2026-05-06 23:22 45.67720 15.95131 18982 ft 402 kts 50°
2026-05-06 23:22 45.69573 15.98121 18980 ft 402 kts 50°
2026-05-06 23:23 45.71426 16.01114 18984 ft 402 kts 50°
2026-05-06 23:23 45.73255 16.04079 18980 ft 403 kts 50°
2026-05-06 23:23 45.75106 16.07084 18983 ft 403 kts 50°
2026-05-06 23:23 45.76956 16.10093 18979 ft 403 kts 50°
2026-05-06 23:24 45.78810 16.13109 18979 ft 403 kts 50°
2026-05-06 23:24 45.80662 16.16128 18982 ft 404 kts 50°
2026-05-06 23:24 45.82516 16.19155 18982 ft 404 kts 50°
2026-05-06 23:24 45.84370 16.22184 18982 ft 404 kts 50°
2026-05-06 23:25 45.86133 16.25318 18974 ft 403 kts 58°
2026-05-06 23:25 45.87416 16.28866 18976 ft 400 kts 72°
2026-05-06 23:25 45.88136 16.32689 18974 ft 395 kts 85°
2026-05-06 23:25 45.88283 16.36586 18973 ft 390 kts 97°
2026-05-06 23:26 45.87888 16.40388 18970 ft 376 kts 108°
2026-05-06 23:26 45.87275 16.43956 18969 ft 360 kts 109°
2026-05-06 23:26 45.86686 16.47392 18717 ft 353 kts 109°
2026-05-06 23:26 45.86095 16.50805 18344 ft 351 kts 109°
2026-05-06 23:27 45.85504 16.54193 17931 ft 349 kts 109°
2026-05-06 23:27 45.84911 16.57579 17502 ft 348 kts 109°
2026-05-06 23:27 45.84321 16.60934 17079 ft 346 kts 109°
2026-05-06 23:27 45.83740 16.64230 16670 ft 345 kts 109°
2026-05-06 23:28 45.83153 16.67564 16259 ft 344 kts 109°
2026-05-06 23:28 45.82569 16.70882 15853 ft 343 kts 109°
2026-05-06 23:28 45.81990 16.74180 15529 ft 339 kts 108°
2026-05-06 23:28 45.81418 16.77442 15237 ft 335 kts 108°
2026-05-06 23:29 45.80852 16.80660 14941 ft 331 kts 108°
2026-05-06 23:29 45.80288 16.83848 14654 ft 328 kts 108°
2026-05-06 23:29 45.79731 16.86990 14364 ft 324 kts 108°
2026-05-06 23:29 45.79176 16.90110 14080 ft 321 kts 109°
2026-05-06 23:30 45.78625 16.93197 13801 ft 318 kts 108°
2026-05-06 23:30 45.78080 16.96259 13482 ft 316 kts 108°
2026-05-06 23:30 45.77540 16.99293 13162 ft 313 kts 108°
2026-05-06 23:30 45.77004 17.02301 12849 ft 310 kts 108°
2026-05-06 23:31 45.76471 17.05278 12539 ft 308 kts 108°
2026-05-06 23:31 45.75939 17.08234 12225 ft 305 kts 108°
2026-05-06 23:31 45.75412 17.11167 11925 ft 303 kts 108°
2026-05-06 23:31 45.74889 17.14073 11671 ft 300 kts 108°
2026-05-06 23:32 45.74393 17.16968 11419 ft 299 kts 107°
2026-05-06 23:32 45.73948 17.19874 11169 ft 298 kts 105°
2026-05-06 23:32 45.73527 17.22769 11064 ft 296 kts 105°
2026-05-06 23:32 45.73113 17.25656 11062 ft 297 kts 105°
2026-05-06 23:33 45.72694 17.28556 11062 ft 297 kts 105°
2026-05-06 23:33 45.72270 17.31451 11062 ft 297 kts 105°
2026-05-06 23:33 45.71847 17.34299 11052 ft 296 kts 106°
2026-05-06 23:33 45.71414 17.37187 10884 ft 296 kts 106°
2026-05-06 23:34 45.70980 17.40059 10688 ft 295 kts 106°
2026-05-06 23:34 45.70546 17.42917 10493 ft 293 kts 106°
2026-05-06 23:34 45.70114 17.45760 10301 ft 292 kts 106°
2026-05-06 23:34 45.69682 17.48602 10110 ft 291 kts 106°
2026-05-06 23:35 45.69255 17.51422 9912 ft 290 kts 105°
2026-05-06 23:35 45.68827 17.54243 9712 ft 289 kts 105°
2026-05-06 23:35 45.68402 17.57052 9502 ft 289 kts 105°
2026-05-06 23:35 45.67976 17.59852 9291 ft 288 kts 106°
2026-05-06 23:36 45.67548 17.62644 9077 ft 287 kts 105°
2026-05-06 23:36 45.67120 17.65430 8872 ft 286 kts 105°
2026-05-06 23:36 45.66693 17.68205 8668 ft 286 kts 105°
2026-05-06 23:36 45.66266 17.70970 8459 ft 285 kts 105°
2026-05-06 23:37 45.65839 17.73733 8256 ft 284 kts 105°
2026-05-06 23:37 45.65413 17.76490 8064 ft 284 kts 105°
2026-05-06 23:37 45.64986 17.79244 7957 ft 283 kts 105°
2026-05-06 23:37 45.64560 17.81989 7958 ft 283 kts 105°
2026-05-06 23:38 45.64134 17.84736 7963 ft 283 kts 105°
2026-05-06 23:38 45.63709 17.87479 7961 ft 283 kts 105°
2026-05-06 23:38 45.63283 17.90224 7965 ft 283 kts 105°
2026-05-06 23:38 45.62856 17.92963 7966 ft 282 kts 105°
2026-05-06 23:39 45.62429 17.95700 7962 ft 282 kts 105°
2026-05-06 23:39 45.62004 17.98432 7966 ft 282 kts 105°
2026-05-06 23:39 45.61575 18.01166 7961 ft 282 kts 105°
2026-05-06 23:39 45.61144 18.03893 7962 ft 281 kts 105°
2026-05-06 23:40 45.60713 18.06619 7962 ft 281 kts 105°
2026-05-06 23:40 45.60233 18.09321 7959 ft 279 kts 114°
2026-05-06 23:40 45.59282 18.11644 7965 ft 275 kts 129°
2026-05-06 23:40 45.58169 18.13859 7963 ft 275 kts 129°
2026-05-06 23:41 45.57042 18.16096 7963 ft 275 kts 129°
2026-05-06 23:41 45.55936 18.18282 7961 ft 274 kts 129°
2026-05-06 23:41 45.54818 18.20485 7963 ft 274 kts 129°
2026-05-06 23:41 45.53700 18.22692 7962 ft 274 kts 129°
2026-05-06 23:42 45.52585 18.24898 7962 ft 274 kts 129°
2026-05-06 23:42 45.51472 18.27100 7961 ft 274 kts 129°
2026-05-06 23:42 45.50358 18.29298 7963 ft 274 kts 129°
2026-05-06 23:42 45.49243 18.31500 7963 ft 274 kts 129°
2026-05-06 23:43 45.48131 18.33697 7967 ft 274 kts 129°
2026-05-06 23:43 45.47016 18.35894 7967 ft 273 kts 129°
2026-05-06 23:43 45.45902 18.38089 7968 ft 273 kts 129°
2026-05-06 23:43 45.44790 18.40277 7970 ft 273 kts 129°
2026-05-06 23:44 45.43674 18.42470 7971 ft 273 kts 129°
2026-05-06 23:44 45.42562 18.44654 7970 ft 273 kts 129°
2026-05-06 23:44 45.41452 18.46837 7974 ft 272 kts 129°
2026-05-06 23:44 45.40346 18.49033 7974 ft 273 kts 125°
2026-05-06 23:45 45.39473 18.51442 7976 ft 274 kts 118°
2026-05-06 23:45 45.38648 18.53884 7973 ft 274 kts 118°
2026-05-06 23:45 45.37821 18.56332 7979 ft 274 kts 118°
2026-05-06 23:45 45.36998 18.58768 7976 ft 274 kts 118°
2026-05-06 23:46 45.36172 18.61205 7979 ft 274 kts 118°
2026-05-06 23:46 45.35346 18.63642 7979 ft 273 kts 118°
2026-05-06 23:46 45.34521 18.66074 7976 ft 273 kts 118°
2026-05-06 23:46 45.33841 18.68589 7979 ft 276 kts 99°
2026-05-06 23:47 45.34109 18.71271 7978 ft 281 kts 65°
2026-05-06 23:47 45.35331 18.73441 7980 ft 284 kts 43°
2026-05-06 23:47 45.36867 18.75198 7980 ft 284 kts 36°
2026-05-06 23:47 45.38497 18.76796 7979 ft 285 kts 34°
2026-05-06 23:48 45.40146 18.78363 7983 ft 285 kts 34°
2026-05-06 23:48 45.41789 18.79955 7983 ft 285 kts 35°
2026-05-06 23:48 45.43390 18.81623 7978 ft 285 kts 44°
2026-05-06 23:48 45.44402 18.83928 7981 ft 279 kts 78°
2026-05-06 23:49 45.44352 18.86607 7980 ft 270 kts 113°
2026-05-06 23:49 45.43414 18.88885 7987 ft 267 kts 132°
2026-05-06 23:49 45.42160 18.90818 7983 ft 266 kts 138°
2026-05-06 23:49 45.40834 18.92647 7980 ft 266 kts 139°
2026-05-06 23:50 45.39512 18.94508 7684 ft 267 kts 137°
2026-05-06 23:50 45.37985 18.99099 6990 ft 271 kts 83°
2026-05-06 23:50 45.38750 19.01509 6652 ft 272 kts 47°
2026-05-06 23:51 45.40342 19.02873 6316 ft 270 kts 11°
2026-05-06 23:51 45.42162 19.02693 5962 ft 261 kts 334°
2026-05-06 23:51 45.43495 19.01088 5607 ft 250 kts 296°
2026-05-06 23:51 45.43899 18.98777 5257 ft 235 kts 269°
2026-05-06 23:52 45.43876 18.96529 4912 ft 220 kts 267°
2026-05-06 23:52 45.43841 18.94410 4566 ft 208 kts 265°
2026-05-06 23:52 45.43769 18.92404 4158 ft 200 kts 266°
2026-05-06 23:52 45.43818 18.90386 3469 ft 206 kts 282°
2026-05-06 23:53 45.44280 18.88539 3375 ft 184 kts 288°
2026-05-06 23:53 45.44719 18.86878 3615 ft 176 kts 288°
2026-05-06 23:53 45.45149 18.85248 3865 ft 176 kts 288°
2026-05-06 23:53 45.45581 18.83616 4095 ft 177 kts 288°
2026-05-06 23:54 45.46047 18.81992 4250 ft 178 kts 294°
2026-05-06 23:54 45.46731 18.80540 3902 ft 182 kts 308°
2026-05-06 23:54 45.47780 18.79288 2917 ft 212 kts 324°
2026-05-06 23:54 45.49325 18.78938 1460 ft 254 kts 17°
2026-05-06 23:55 45.50283 18.80932 300 ft 233 kts 88°
2026-05-06 23:55 45.50320 18.82030 593 ft 237 kts 86°